#timestamp,LO_Frequency,Hit,StdDev 
1582556415.6,286046996.7,N
1582556435.5,286046997.1,N
1582556455.3,286046999.0,N
1582556475.1,286046997.1,N
1582556495.9,286046995.0,Y
1582556515.7,286046998.5,P
1582556535.5,286046998.8,P
1582556555.4,286046998.8,P
1582556575.2,286047000.0,N
1582556595.1,286046998.6,N
1582556596.0,286046998.6,N
1582556615.8,286046998.6,N
1582556635.6,286047001.2,N
1582556655.5,286047000.5,N
1582556675.3,286047000.7,N
1582556695.2,286047001.2,N
1582556715.9,286047000.8,N
1582556735.7,286046998.5,N
1582556755.6,286046999.4,N
1582556775.4,286046996.6,Y
1582556795.2,286046996.7,P
1582556815.1,286046998.2,N
1582556816.0,286046998.2,N
1582556835.8,286046996.9,Y
1582556855.7,286047000.7,P
1582556875.5,286047000.6,N
1582556895.3,286047000.5,N
1582556915.2,286047000.4,N
1582556935.0,286047001.0,N
1582556935.9,286047001.0,N
1582556955.8,286047000.8,N
1582556975.6,286046998.3,N
1582556995.4,286047000.0,N
1582557015.3,286047001.7,N
1582557035.1,286047002.8,N
1582557055.9,286047000.9,N
1582557075.7,286047002.6,N
1582557095.5,286047003.0,N
1582557115.4,286047003.1,N
1582557135.2,286047001.3,N
1582557155.0,286047001.9,N
1582557155.9,286047001.9,N
1582557175.8,286047005.3,Y
1582557195.6,286047004.1,P
1582557215.5,286047002.9,N
1582557235.3,286047001.3,N
1582557255.1,286047001.4,N
1582557275.9,286047003.2,N
1582557295.7,286047002.9,N
1582557315.6,286047004.4,Y
1582557335.4,286047000.9,P
1582557355.2,286046998.5,N
1582557375.1,286046999.4,N
1582557376.0,286046999.4,N
1582557395.8,286046998.3,N
1582557415.7,286047002.7,N
1582557435.5,286047004.4,N
1582557455.3,286047003.9,N
1582557475.2,286047005.2,N
1582557495.0,286047005.6,N
1582557495.9,286047005.6,N
1582557515.8,286047005.7,N
1582557535.6,286047002.9,N
1582557555.4,286047003.9,N
1582557575.3,286047001.7,N
1582557595.1,286047000.2,N
1582557615.8,286047004.4,N
1582557635.7,286047005.8,N
1582557655.5,286047003.7,N
1582557675.4,286047005.8,N
1582557695.2,286047005.7,N
1582557715.0,286047003.4,N
1582557715.9,286047003.4,N
1582557735.8,286047004.2,N
1582557755.6,286047003.6,N
1582557775.5,286047006.0,N
1582557795.3,286047004.0,N
1582557815.1,286047004.4,N
1582557835.9,286047001.4,N
1582557855.7,286047004.0,N
1582557875.6,286047001.3,N
1582557895.4,286046999.9,N
1582557915.2,286046998.6,N
1582557935.1,286046999.7,N
1582557936.0,286046999.7,N
1582557955.8,286047002.4,N
1582557975.6,286047002.7,N
1582557995.5,286047002.2,N
1582558015.3,286047001.9,N
1582558035.2,286047004.2,N
1582558055.9,286047003.3,N
1582558075.7,286047004.9,N
1582558095.6,286047005.8,N
1582558115.4,286047005.8,N
1582558135.3,286047002.9,N
1582558155.1,286047005.5,N
1582558156.0,286047005.5,N
1582558175.8,286047003.2,N
1582558195.7,286047004.1,N
1582558215.5,286047004.2,N
1582558235.3,286047004.3,N
1582558255.2,286047002.9,N
1582558275.0,286047005.4,N
1582558275.9,286047005.4,N
1582558295.8,286047004.8,N
1582558315.6,286047004.3,N
1582558335.4,286047004.1,N
1582558355.3,286047005.1,N
1582558375.1,286047004.5,N
1582558395.9,286047006.8,Y
1582558415.7,286047003.7,P
1582558435.5,286047001.4,P
1582558455.4,286047002.0,N
1582558475.2,286047001.7,N
1582558495.1,286047004.2,Y
1582558496.0,286047004.2,P
1582558515.8,286047002.2,N
1582558535.6,286047004.0,P
1582558555.5,286047001.7,N
1582558575.3,286047001.6,N
1582558595.1,286046999.9,N
1582558615.9,286047002.4,N
1582558635.7,286047004.4,Y
1582558655.6,286047000.9,P
1582558675.4,286046999.9,N
1582558695.2,286046999.7,N
1582558715.1,286046999.9,N
1582558716.0,286046999.9,N
1582558735.8,286047000.3,N
1582558755.7,286046997.0,Y
1582558775.5,286046997.4,P
1582558795.3,286046995.6,N
1582558815.2,286047000.7,N
1582558835.0,286047001.1,N
1582558835.9,286047001.1,N
1582558855.8,286046998.1,N
1582558875.6,286046998.5,N
1582558895.4,286047000.9,N
1582558915.3,286047000.4,N
1582558935.1,286047001.6,N
1582558955.9,286046999.0,N
1582558975.7,286046996.7,N
1582558995.5,286046996.9,N
1582559015.4,286046998.5,N
1582559035.2,286046999.4,N
1582559055.0,286046999.5,N
1582559055.9,286046999.5,N
1582559075.8,286046998.8,N
1582559095.6,286046997.2,N
1582559115.5,286046998.2,N
1582559135.3,286046999.9,N
1582559155.1,286046997.2,N
1582559175.9,286046995.3,N
1582559195.7,286046999.1,N
1582559215.6,286047001.1,N
1582559235.4,286046997.0,N
1582559255.2,286046998.3,N
1582559275.1,286046997.1,N
1582559276.0,286046997.1,N
1582559295.8,286047000.7,N
1582559315.6,286046998.3,N
1582559335.5,286047000.8,N
1582559355.3,286046998.9,N
1582559375.2,286046998.9,N
1582559395.0,286046997.0,N
1582559395.9,286046997.0,N
1582559415.7,286046998.5,N
1582559435.6,286047001.0,N
1582559455.4,286046998.2,N
1582559475.3,286046998.2,N
1582559495.1,286047000.7,N
1582559496.0,286047000.7,N
1582559515.8,286047000.3,N
1582559535.7,286046998.1,N
1582559555.5,286046996.8,N
1582559575.4,286046998.5,N
1582559595.2,286047001.2,N
1582559615.1,286047000.8,N
1582559616.0,286047000.8,N
1582559635.8,286047002.3,N
1582559655.6,286047001.8,N
1582559675.5,286047003.7,N
1582559695.3,286047001.8,N
1582559715.2,286047002.0,N
1582559735.9,286047002.5,N
1582559755.7,286047001.5,N
1582559775.6,286047004.3,N
1582559795.4,286047003.8,N
1582559815.3,286047004.2,N
1582559835.1,286047003.5,N
1582559836.0,286047003.5,N
1582559855.8,286047003.3,N
1582559875.7,286047004.3,N
1582559895.5,286047003.7,N
1582559915.4,286047001.5,N
1582559935.2,286047001.9,N
1582559955.0,286046999.3,N
1582559955.9,286046999.3,N
1582559975.8,286047001.2,N
1582559995.6,286047000.8,N
